GW4197 Weather Reports


time (UTC)temp
F
wind
direction
speed
knots
gust
knots
rain 1hr
in
rain 24hr
in
rain mn
in
humidity
%
barometer
mb
20260831145503 66 276 9.6 14.8 0.00 0.57 0.17 80 1011.4
20260831145003 65 276 9.6 14.8 0.00 0.57 0.17 79 1011.4
20260831144524 66 274 9.6 14.8 0.00 0.57 0.17 80 1011.3
20260831144024 66 274 10.4 14.8 0.00 0.57 0.17 79 1011.2
20260831143503 66 275 10.4 15.6 0.00 0.57 0.17 78 1011.2
20260831143003 66 276 10.4 15.6 0.00 0.57 0.17 79 1011.1
20260831142503 66 277 9.6 14.8 0.00 0.57 0.17 80 1011.0
20260831142003 66 277 9.6 14.8 0.00 0.57 0.17 80 1011.0
20260831141503 65 282 8.7 14.8 0.00 0.57 0.17 80 1011.0
20260831141003 66 283 7.8 12.2 0.00 0.57 0.17 77 1010.9
20260831140524 66 284 7.8 12.2 0.00 0.57 0.17 77 1011.0
20260831140024 66 291 7.8 13.0 0.00 0.57 0.17 78 1010.9
20260831135503 66 283 7.8 13.0 0.00 0.57 0.17 78 1010.8
20260831135025 66 280 7.8 12.2 0.00 0.57 0.17 76 1010.7
20260831134503 66 283 8.7 13.0 0.00 0.57 0.17 77 1010.7
20260831134003 66 283 8.7 13.0 0.00 0.57 0.17 77 1010.8
20260831133503 66 287 8.7 12.2 0.00 0.57 0.17 76 1010.8
20260831133024 66 290 8.7 13.0 0.00 0.57 0.17 78 1010.8
20260831132524 66 289 8.7 13.9 0.00 0.57 0.17 76 1010.7
20260831132003 66 287 9.6 13.9 0.00 0.57 0.17 76 1010.6
20260831131503 66 287 9.6 14.8 0.00 0.57 0.17 75 1010.5
20260831131006 66 286 9.6 14.8 0.00 0.57 0.17 77 1010.4
20260831130503 66 285 9.6 13.9 0.00 0.57 0.17 78 1010.4
20260831130024 65 283 8.7 13.9 0.00 0.57 0.17 77 1010.4
20260831125503 66 286 9.6 14.8 0.00 0.57 0.17 77 1010.2
20260831125024 66 289 9.6 16.5 0.00 0.57 0.17 78 1010.1
20260831124503 66 290 10.4 16.5 0.00 0.57 0.17 78 1010.0
20260831124003 65 295 10.4 14.8 0.00 0.57 0.17 77 1010.0
20260831123524 66 294 10.4 15.6 0.00 0.57 0.17 77 1009.9
20260831123003 66 290 10.4 16.5 0.00 0.57 0.17 80 1009.8
20260831122524 65 292 11.3 16.5 0.00 0.57 0.17 79 1009.8
20260831122004 65 290 11.3 14.8 0.00 0.57 0.17 79 1009.7
20260831121524 65 287 10.4 14.8 0.00 0.57 0.17 82 1009.6
20260831121024 65 285 9.6 13.9 0.00 0.57 0.17 84 1009.6
20260831120503 65 289 9.6 13.9 0.00 0.57 0.17 83 1009.5
20260831120003 65 294 9.6 13.9 0.00 0.57 0.17 81 1009.4
20260831115503 65 295 10.4 15.6 0.00 0.57 0.17 79 1009.5
20260831115003 65 292 10.4 15.6 0.00 0.57 0.17 79 1009.4
20260831114503 65 282 11.3 18.2 0.00 0.57 0.17 83 1009.3
20260831114024 66 273 11.3 18.2 0.00 0.57 0.17 82 1009.4
20260831113504 66 270 10.4 15.6 0.00 0.57 0.17 80 1009.3
20260831113003 65 267 9.6 15.6 0.00 0.57 0.17 79 1009.2
20260831112503 65 267 9.6 15.6 0.00 0.57 0.17 81 1009.2
20260831112003 65 266 9.6 15.6 0.00 0.57 0.17 82 1009.2
20260831111503 65 267 9.6 14.8 0.00 0.57 0.17 80 1009.1
20260831111024 65 271 9.6 15.6 0.00 0.57 0.17 81 1009.1
20260831110525 65 268 10.4 17.4 0.00 0.57 0.17 80 1009.2
20260831110003 65 267 11.3 17.4 0.00 0.57 0.17 79 1009.2
20260831105524 65 271 10.4 13.9 0.00 0.57 0.17 81 1009.3
20260831105003 65 273 10.4 15.6 0.00 0.57 0.17 79 1009.3
20260831104503 66 269 10.4 14.8 0.00 0.57 0.17 81 1009.2
20260831104003 65 268 10.4 15.6 0.00 0.57 0.17 80 1009.1
20260831103524 65 270 10.4 15.6 0.00 0.57 0.17 81 1009.1
20260831103003 65 265 11.3 17.4 0.00 0.57 0.17 80 1009.0
20260831102503 65 263 12.2 17.4 0.00 0.57 0.17 79 1009.0
20260831102003 65 263 10.4 17.4 0.00 0.57 0.17 82 1009.1
20260831101503 65 261 9.6 14.8 0.00 0.57 0.17 85 1009.0
20260831101003 65 261 9.6 14.8 0.00 0.57 0.17 85 1008.9
20260831100503 65 262 10.4 14.8 0.00 0.57 0.17 83 1008.8
20260831100024 65 262 10.4 14.8 0.00 0.57 0.17 83 1008.8
20260831095503 65 263 9.6 14.8 0.00 0.57 0.17 85 1008.9
20260831095003 65 262 8.7 15.6 0.00 0.57 0.17 87 1008.9
20260831094503 65 262 9.6 15.6 0.00 0.57 0.17 89 1008.6
20260831094003 65 262 10.4 14.8 0.00 0.57 0.17 90 1008.5
20260831093503 64 261 10.4 15.6 0.00 0.57 0.17 90 1008.5
20260831093024 64 261 10.4 15.6 0.00 0.57 0.17 89 1008.7
20260831092503 64 260 9.6 13.9 0.00 0.57 0.17 89 1008.7
20260831092024 64 260 8.7 13.9 0.00 0.57 0.17 90 1008.6
20260831091503 64 260 8.7 13.0 0.00 0.57 0.17 91 1008.6
20260831091024 64 258 9.6 14.8 0.00 0.57 0.17 91 1008.3
20260831090503 64 256 10.4 15.6 0.00 0.57 0.17 91 1008.4
20260831090003 64 255 10.4 15.6 0.00 0.57 0.17 91 1008.5
20260831085503 64 249 10.4 15.6 0.00 0.57 0.17 91 1008.5
20260831085003 64 247 11.3 16.5 0.00 0.57 0.17 91 1008.1
20260831084503 64 247 10.4 16.5 0.00 0.57 0.17 91 1008.0
20260831084003 64 247 9.6 14.8 0.00 0.57 0.17 90 1007.9
20260831083504 64 250 8.7 12.2 0.00 0.57 0.17 91 1008.1
20260831083003 64 253 8.7 13.0 0.00 0.57 0.17 91 1008.0
20260831082503 64 249 8.7 13.0 0.00 0.57 0.17 90 1008.1
20260831082003 64 248 7.8 11.3 0.00 0.57 0.17 90 1008.1
20260831081503 64 249 7.8 13.0 0.00 0.57 0.17 90 1008.2
20260831081003 64 248 8.7 13.0 0.00 0.57 0.17 90 1008.3
20260831080503 64 251 7.8 11.3 0.00 0.57 0.17 90 1008.4
20260831080003 64 255 6.1 10.4 0.00 0.57 0.17 90 1008.1
20260831075503 64 259 6.1 12.2 0.00 0.57 0.17 91 1008.0
20260831075003 64 260 7.0 12.2 0.00 0.57 0.17 90 1008.1
20260831074524 64 258 7.0 11.3 0.00 0.57 0.17 90 1008.2
20260831074024 64 257 6.1 10.4 0.00 0.57 0.17 89 1008.4
20260831073503 63 258 6.1 10.4 0.00 0.57 0.17 89 1008.2
20260831073003 63 257 5.2 9.6 0.00 0.57 0.17 90 1008.2
20260831072503 63 252 4.3 8.7 0.00 0.57 0.17 91 1008.2
20260831072024 62 253 4.3 8.7 0.00 0.57 0.17 92 1008.3
20260831071503 61 257 1.7 7.0 0.00 0.57 0.17 96 1008.2
20260831071003 59 311 0.0 2.6 0.00 0.57 0.17 97 1008.4
20260831070524 59 0 0.0 0.0 0.00 0.57 0.17 96 1008.4
20260831070003 59 91 0.0 2.6 0.00 0.57 0.17 96 1008.6
20260831065504 59 94 0.0 2.6 0.00 0.57 0.17 96 1008.7
20260831065003 59 95 0.9 3.5 0.00 0.57 0.17 96 1008.6
20260831064503 59 92 0.9 3.5 0.01 0.57 0.17 96 1008.6
20260831064003 59 87 0.0 3.5 0.01 0.57 0.17 96 1008.7
20260831063503 59 0 0.0 0.0 0.01 0.57 0.17 95 1008.8
20260831063003 59 0 0.0 0.0 0.01 0.57 0.17 96 1008.9
20260831062503 59 0 0.0 0.0 0.01 0.57 0.17 95 1008.9
20260831062003 59 0 0.0 0.0 0.01 0.57 0.17 95 1008.9
20260831061503 60 0 0.0 0.0 0.02 0.57 0.17 95 1008.9
20260831061003 60 0 0.0 0.0 0.04 0.57 0.17 95 1009.0
20260831060503 60 0 0.0 0.0 0.06 0.57 0.17 95 1009.0
20260831060024 60 0 0.0 0.0 0.08 0.57 0.17 95 1009.0
20260831055503 60 0 0.0 0.0 0.10 0.57 0.17 94 1009.1
20260831055003 60 0 0.0 0.0 0.13 0.57 0.17 94 1009.3
20260831054503 60 0 0.0 0.0 0.14 0.56 0.17 93 1009.2
20260831054003 61 0 0.0 0.0 0.15 0.56 0.17 92 1009.2
20260831053503 61 230 0.0 2.6 0.16 0.56 0.17 92 1009.2
20260831053003 61 231 1.7 4.3 0.17 0.56 0.17 91 1009.4
20260831052503 62 241 3.5 7.0 0.17 0.56 0.17 92 1009.5
20260831052003 62 251 4.3 7.8 0.17 0.56 0.17 93 1009.6
20260831051524 62 255 4.3 7.8 0.15 0.54 0.15 95 1009.8
20260831051003 61 255 2.6 7.8 0.13 0.53 0.13 97 1009.8
20260831050503 61 257 0.0 1.7 0.12 0.51 0.12 100 1009.7
20260831050003 60 0 0.0 0.0 0.09 0.49 0.09 97 1009.7
20260831045504 60 72 0.0 3.5 0.07 0.46 0.07 97 1009.6
20260831045003 60 86 0.9 3.5 0.04 0.43 0.04 97 1009.2
20260831044503 60 114 1.7 5.2 0.02 0.42 0.02 97 1009.3
20260831044003 60 124 2.6 5.2 0.02 0.41 0.02 97 1009.4
20260831043506 60 128 2.6 6.1 0.01 0.40 0.01 97 1009.3
20260831043024 60 128 3.5 6.1 0.00 0.39 0.00 97 1009.3
20260831042503 60 129 3.5 7.0 0.00 0.39 0.00 97 1009.2
20260831042003 60 130 3.5 7.0 0.00 0.39 0.00 97 1009.2
20260831041503 60 124 3.5 6.1 0.00 0.39 0.00 97 1009.2
20260831041003 60 112 2.6 5.2 0.00 0.39 0.00 97 1009.1
20260831040503 60 106 2.6 5.2 0.00 0.39 0.00 97 1009.0
20260831040024 60 110 2.6 5.2 0.00 0.39 0.00 97 1009.1
20260831035525 60 118 3.5 6.1 0.00 0.39 0.00 97 1009.2
20260831035024 60 124 3.5 6.1 0.00 0.39 0.00 97 1009.1
20260831034503 60 128 3.5 6.1 0.01 0.39 0.00 97 1009.2
20260831034003 60 132 2.6 6.1 0.02 0.39 0.00 97 1009.3
20260831033504 60 133 2.6 5.2 0.06 0.39 0.00 96 1009.5
20260831033003 60 131 1.7 5.2 0.14 0.39 0.00 96 1009.6
20260831032503 60 124 1.7 4.3 0.26 0.39 0.00 96 1009.8
20260831032024 60 117 1.7 4.3 0.31 0.39 0.00 96 1009.7
20260831031524 60 116 0.9 3.5 0.37 0.39 0.00 96 1009.7
20260831031003 60 121 1.7 3.5 0.39 0.39 0.00 96 1009.8
20260831030503 60 126 1.7 3.5 0.39 0.39 0.00 96 1009.8
20260831030003 60 126 1.7 2.6 0.39 0.39 0.00 96 1009.9
20260831025503 60 108 1.7 3.5 0.39 0.39 0.39 96 1010.0
20260831025024 60 81 1.7 5.2 0.39 0.39 0.39 96 1010.1
20260831024503 60 82 2.6 5.2 0.39 0.39 0.39 95 1010.1
20260831024003 61 83 1.7 4.3 0.38 0.38 0.38 95 1010.5
20260831023504 61 297 2.6 9.6 0.34 0.34 0.34 95 1010.7
20260831023003 61 284 5.2 11.3 0.25 0.25 0.25 95 1011.1
20260831022503 61 278 7.0 15.6 0.13 0.13 0.14 93 1010.9
20260831022003 62 277 9.6 18.2 0.08 0.08 0.08 92 1010.7
20260831021503 63 272 6.1 18.2 0.02 0.02 0.02 89 1010.7
20260831021003 65 123 2.6 5.2 0.01 0.01 0.01 90 1009.8
20260831020504 65 120 2.6 5.2 0.00 0.00 0.00 90 1009.7
20260831020003 65 123 1.7 3.5 0.00 0.00 0.00 90 1009.7
20260831015503 65 135 1.7 5.2 0.00 0.00 0.00 90 1009.9
20260831015003 65 136 2.6 6.1 0.00 0.00 0.00 90 1009.9
20260831014503 65 136 2.6 6.1 0.00 0.00 0.00 90 1010.2
20260831014024 65 136 2.6 6.1 0.00 0.00 0.00 90 1010.1
20260831013503 65 133 2.6 7.0 0.00 0.00 0.00 90 1010.2
20260831013003 65 136 2.6 7.0 0.00 0.00 0.00 90 1010.3
20260831012524 65 149 1.7 7.0 0.00 0.00 0.00 90 1010.3
20260831012003 65 140 1.7 5.2 0.00 0.00 0.00 90 1010.5
20260831011503 64 135 1.7 5.2 0.00 0.00 0.00 90 1010.5
20260831011003 64 134 1.7 4.3 0.00 0.00 0.00 90 1010.6
20260831010504 64 122 0.9 3.5 0.00 0.00 0.00 90 1010.5
20260831010003 64 121 1.7 4.3 0.00 0.00 0.00 91 1010.6
20260831005503 64 121 1.7 4.3 0.00 0.00 0.00 91 1010.6
20260831005003 64 123 1.7 4.3 0.00 0.00 0.00 91 1010.8
20260831004524 64 121 1.7 4.3 0.00 0.00 0.00 91 1010.9
20260831004003 64 128 2.6 6.1 0.00 0.00 0.00 91 1010.9
20260831003503 64 131 2.6 6.1 0.00 0.00 0.00 92 1011.0
20260831003003 64 128 1.7 5.2 0.00 0.00 0.00 92 1011.0
20260831002524 64 122 1.7 5.2 0.00 0.00 0.00 91 1011.0
20260831002003 64 121 2.6 5.2 0.00 0.00 0.00 91 1010.9
20260831001503 64 129 2.6 4.3 0.00 0.00 0.00 91 1011.2
20260831001003 64 129 2.6 4.3 0.00 0.00 0.00 91 1011.1
20260831000503 64 116 1.7 4.3 0.00 0.00 0.00 91 1011.0
20260831000003 64 102 1.7 3.5 0.00 0.00 0.00 91 1011.0
20260830235503 64 101 1.7 2.6 0.00 0.00 0.00 91 1011.0
20260830235003 64 102 1.7 2.6 0.00 0.00 0.00 91 1011.0
20260830234503 64 105 1.7 2.6 0.00 0.00 0.00 90 1011.1
20260830234003 64 112 1.7 3.5 0.00 0.00 0.00 90 1011.2
20260830233503 64 111 1.7 3.5 0.00 0.00 0.00 90 1011.2
20260830233003 64 107 0.9 2.6 0.00 0.00 0.00 90 1011.0
20260830232503 65 107 0.9 1.7 0.00 0.00 0.00 90 1011.2
20260830232024 65 109 0.9 1.7 0.00 0.00 0.00 89 1011.2
20260830231503 65 114 0.9 1.7 0.00 0.00 0.00 88 1011.4
20260830231003 65 117 0.9 2.6 0.00 0.00 0.00 88 1011.5
20260830230503 65 119 0.9 2.6 0.00 0.00 0.00 89 1011.5
20260830230003 66 121 0.9 2.6 0.00 0.00 0.00 89 1011.4
20260830225503 66 0 0.0 0.0 0.00 0.00 0.00 88 1011.2
20260830225003 66 0 0.0 0.0 0.00 0.00 0.00 88 1011.4
20260830224503 66 0 0.0 0.0 0.00 0.00 0.00 87 1011.2
20260830224003 66 0 0.0 0.0 0.00 0.00 0.00 87 1011.4
20260830223524 67 0 0.0 0.0 0.00 0.00 0.00 86 1011.4
20260830223003 67 0 0.0 0.0 0.00 0.00 0.00 86 1011.4
20260830222503 67 0 0.0 0.0 0.00 0.00 0.00 85 1011.5
20260830222003 68 272 0.0 1.7 0.00 0.00 0.00 84 1011.5
20260830221503 68 284 0.9 3.5 0.00 0.00 0.00 83 1011.6
20260830221004 68 287 2.6 5.2 0.00 0.00 0.00 84 1011.7
20260830220503 68 285 3.5 6.1 0.00 0.00 0.00 84 1011.7
20260830220003 68 286 3.5 6.1 0.00 0.00 0.00 84 1011.5
20260830215524 68 286 4.3 8.7 0.00 0.00 0.00 84 1011.6
20260830215003 68 280 5.2 8.7 0.00 0.00 0.00 84 1011.5
20260830214503 68 277 5.2 9.6 0.00 0.00 0.00 84 1011.5
20260830214003 68 276 5.2 9.6 0.00 0.00 0.00 83 1011.6
20260830213503 69 274 6.1 12.2 0.00 0.00 0.00 84 1011.6
20260830213003 69 254 7.0 12.2 0.00 0.00 0.00 81 1011.6
20260830212503 71 225 6.1 11.3 0.00 0.00 0.00 77 1011.6
20260830212003 71 215 6.1 11.3 0.00 0.00 0.00 75 1011.4
20260830211503 71 212 6.1 11.3 0.00 0.00 0.00 73 1011.5
20260830211003 71 206 6.1 10.4 0.00 0.00 0.00 72 1011.5
20260830210524 72 209 7.0 12.2 0.00 0.00 0.00 71 1011.4
20260830210003 72 210 6.1 12.2 0.00 0.00 0.00 70 1011.3
20260830205503 72 206 6.1 10.4 0.00 0.00 0.00 70 1011.2
20260830205003 72 208 6.1 10.4 0.00 0.00 0.00 68 1011.4
20260830204524 72 206 5.2 10.4 0.00 0.00 0.00 67 1011.4
20260830204003 73 205 4.3 11.3 0.00 0.00 0.00 66 1011.3
20260830203506 73 207 3.5 11.3 0.00 0.00 0.00 64 1011.5
20260830203003 74 208 3.5 8.7 0.00 0.00 0.00 62 1011.4
20260830202503 74 210 4.3 9.6 0.00 0.00 0.00 62 1011.5
20260830202003 75 213 3.5 9.6 0.00 0.00 0.00 62 1011.7
20260830201524 74 201 4.3 9.6 0.00 0.00 0.00 62 1011.7
20260830201003 74 190 2.6 9.6 0.00 0.00 0.00 64 1011.7
20260830200503 73 190 1.7 9.6 0.00 0.00 0.00 65 1011.7
20260830200003 72 188 3.5 10.4 0.00 0.00 0.00 66 1011.7
20260830195503 72 192 4.3 10.4 0.00 0.00 0.00 65 1011.7
20260830195003 72 195 3.5 7.8 0.00 0.00 0.00 65 1011.8
20260830194503 71 194 3.5 8.7 0.00 0.00 0.00 66 1011.8
20260830194003 71 195 3.5 8.7 0.00 0.00 0.00 65 1011.8
20260830193503 71 194 3.5 7.8 0.00 0.00 0.00 66 1011.9
20260830193003 71 188 2.6 7.8 0.00 0.00 0.00 66 1011.7
20260830192503 72 184 2.6 7.0 0.00 0.00 0.00 66 1011.9
20260830192003 71 190 3.5 8.7 0.00 0.00 0.00 67 1011.8
20260830191524 71 197 3.5 8.7 0.00 0.00 0.00 66 1011.8
20260830191003 71 198 4.3 11.3 0.00 0.00 0.00 66 1011.8
20260830190503 71 195 4.3 11.3 0.00 0.00 0.00 66 1011.9
20260830190003 71 195 3.5 7.8 0.00 0.00 0.00 67 1011.9
20260830185503 71 196 3.5 10.4 0.00 0.00 0.00 67 1012.0
20260830185003 71 201 4.3 11.3 0.00 0.00 0.00 66 1012.0
20260830184503 71 201 5.2 11.3 0.00 0.00 0.00 66 1012.0
20260830184003 71 194 5.2 11.3 0.00 0.00 0.00 66 1012.1
20260830183503 71 192 5.2 11.3 0.00 0.00 0.00 66 1012.0
20260830183003 71 196 4.3 11.3 0.00 0.00 0.00 66 1012.1
20260830182525 71 200 4.3 11.3 0.00 0.00 0.00 66 1012.1
20260830182003 71 204 5.2 12.2 0.00 0.00 0.00 67 1012.2
20260830181524 71 201 5.2 13.0 0.00 0.00 0.00 66 1012.3
20260830181024 71 202 6.1 13.9 0.00 0.00 0.00 65 1012.4
20260830180503 72 202 7.0 13.9 0.00 0.00 0.00 64 1012.4
20260830180024 72 203 7.0 12.2 0.00 0.00 0.00 63 1012.5
20260830175503 72 210 7.8 17.4 0.00 0.00 0.00 64 1012.6
20260830175003 73 207 7.0 17.4 0.00 0.00 0.00 62 1012.6
20260830174503 73 205 6.1 13.9 0.00 0.00 0.00 62 1012.6
20260830174003 73 212 6.1 13.9 0.00 0.00 0.00 62 1012.7
20260830173503 73 207 7.0 15.6 0.00 0.00 0.00 63 1012.7
20260830173003 72 203 7.0 15.6 0.00 0.00 0.00 61 1012.7
20260830172503 72 208 7.0 13.0 0.00 0.00 0.00 62 1012.7
20260830172003 72 208 7.8 16.5 0.00 0.00 0.00 61 1012.8
20260830171524 73 215 9.6 16.5 0.00 0.00 0.00 61 1012.7
20260830171003 74 221 8.7 16.5 0.00 0.00 0.00 64 1013.0
20260830170524 74 217 9.6 19.1 0.00 0.00 0.00 63 1013.0
20260830170003 74 217 9.6 19.1 0.00 0.00 0.00 62 1013.1
20260830165503 73 221 8.7 16.5 0.00 0.00 0.00 62 1013.2
20260830165003 73 222 8.7 15.6 0.00 0.00 0.00 61 1013.2
20260830164524 73 221 8.7 15.6 0.00 0.00 0.00 62 1013.3
20260830164024 73 219 7.8 14.8 0.00 0.00 0.00 62 1013.4
20260830163503 73 217 7.8 14.8 0.00 0.00 0.00 62 1013.4
20260830163003 73 220 7.8 14.8 0.00 0.00 0.00 63 1013.5
20260830162503 73 222 8.7 14.8 0.00 0.00 0.00 62 1013.7
20260830162024 73 224 8.7 16.5 0.00 0.00 0.00 62 1013.7
20260830161503 73 225 8.7 16.5 0.00 0.00 0.00 62 1013.9
20260830161004 72 223 8.7 15.6 0.00 0.00 0.00 65 1013.8
20260830160503 72 222 8.7 16.5 0.00 0.00 0.00 65 1013.9
20260830160024 71 220 8.7 16.5 0.00 0.00 0.00 67 1014.0
20260830155503 71 220 7.8 13.9 0.00 0.00 0.00 66 1014.1
20260830155024 71 217 7.8 14.8 0.00 0.00 0.00 69 1014.2
20260830154503 71 218 7.8 14.8 0.00 0.00 0.00 68 1014.1
20260830154003 72 222 7.0 13.0 0.00 0.00 0.00 69 1014.2
20260830153503 71 222 7.0 12.2 0.00 0.00 0.00 71 1014.1
20260830153003 71 221 7.8 14.8 0.00 0.00 0.00 70 1014.3
20260830152524 71 221 7.8 14.8 0.00 0.00 0.00 69 1014.4
20260830152003 71 222 7.0 12.2 0.00 0.00 0.00 68 1014.5
20260830151503 71 224 7.8 12.2 0.00 0.00 0.00 69 1014.5
20260830151003 71 225 7.8 13.0 0.00 0.00 0.00 70 1014.6
20260830150503 71 224 8.7 14.8 0.00 0.00 0.00 70 1014.7
20260830150003 71 224 8.7 14.8 0.00 0.00 0.00 70 1014.7